TimeCST,TemperatureF,Dew PointF,Humidity,Sea Level PressureIn,VisibilityMPH,Wind Direction,Wind SpeedMPH,Gust SpeedMPH,PrecipitationIn,Events,Conditions,WindDirDegrees,DateUTC
12:15 AM,-7.6,-11.2,84,29.85,10.0,West,3.5,-,N/A,,Clear,280,2013-12-10 06:15:00
12:35 AM,-9.4,-13.0,84,29.86,10.0,WNW,3.5,-,N/A,,Clear,290,2013-12-10 06:35:00
12:55 AM,-7.6,-11.2,84,29.87,10.0,West,3.5,-,N/A,,Clear,280,2013-12-10 06:55:00
1:15 AM,-7.6,-13.0,77,29.86,10.0,WNW,5.8,-,N/A,,Clear,290,2013-12-10 07:15:00
1:35 AM,-9.4,-14.8,77,29.86,10.0,NW,4.6,-,N/A,,Clear,320,2013-12-10 07:35:00
1:55 AM,-13.0,-16.6,84,29.86,10.0,NNW,3.5,-,N/A,,Clear,330,2013-12-10 07:55:00
2:15 AM,-7.6,-11.2,84,29.87,10.0,Calm,Calm,-,N/A,,Clear,0,2013-12-10 08:15:00
2:35 AM,-9.4,-13.0,84,29.88,10.0,West,5.8,-,N/A,,Clear,260,2013-12-10 08:35:00
2:55 AM,-9.4,-13.0,84,29.88,10.0,West,6.9,-,N/A,,Clear,260,2013-12-10 08:55:00
3:15 AM,-11.2,-16.6,77,29.88,10.0,WSW,6.9,-,N/A,,Clear,240,2013-12-10 09:15:00
3:35 AM,-11.2,-16.6,77,29.90,10.0,WSW,10.4,-,N/A,,Clear,250,2013-12-10 09:35:00
4:35 AM,-7.6,-11.2,84,29.90,10.0,WNW,8.1,-,N/A,,Clear,290,2013-12-10 10:35:00
4:55 AM,-5.8,-11.2,77,29.90,10.0,NW,8.1,-,N/A,,Clear,310,2013-12-10 10:55:00
5:15 AM,-5.8,-11.2,77,29.89,10.0,WNW,9.2,-,N/A,,Partly Cloudy,300,2013-12-10 11:15:00
5:35 AM,-7.6,-11.2,84,29.89,10.0,WSW,6.9,-,N/A,,Partly Cloudy,240,2013-12-10 11:35:00
5:55 AM,-13.0,-18.4,77,29.88,10.0,SW,3.5,-,N/A,,Partly Cloudy,220,2013-12-10 11:55:00
6:15 AM,-13.0,-18.4,77,29.88,10.0,SSW,4.6,-,N/A,,Clear,200,2013-12-10 12:15:00
6:35 AM,-11.2,-16.6,77,29.88,10.0,WSW,9.2,-,N/A,,Mostly Cloudy,240,2013-12-10 12:35:00
6:55 AM,-11.2,-16.6,77,29.88,10.0,SW,4.6,-,N/A,,Mostly Cloudy,220,2013-12-10 12:55:00
7:15 AM,-11.2,-16.6,77,29.88,7.0,WSW,9.2,-,N/A,,Clear,240,2013-12-10 13:15:00
7:35 AM,-11.2,-16.6,77,29.88,10.0,SW,9.2,-,N/A,,Clear,220,2013-12-10 13:35:00
7:55 AM,-11.2,-16.6,77,29.89,10.0,SW,9.2,-,N/A,,Clear,230,2013-12-10 13:55:00
8:15 AM,-13.0,-18.4,77,29.90,10.0,SW,11.5,-,N/A,,Clear,230,2013-12-10 14:15:00
8:35 AM,-13.0,-18.4,77,29.89,10.0,SW,8.1,-,N/A,,Clear,230,2013-12-10 14:35:00
8:55 AM,-11.2,-16.6,77,29.90,10.0,SW,12.7,-,N/A,,Clear,220,2013-12-10 14:55:00
9:15 AM,-11.2,-16.6,77,29.91,10.0,WSW,12.7,-,N/A,,Clear,240,2013-12-10 15:15:00
9:35 AM,-9.4,-13.0,84,29.92,10.0,SW,9.2,-,N/A,,Clear,230,2013-12-10 15:35:00
9:55 AM,-9.4,-14.8,77,29.93,10.0,SW,11.5,-,N/A,,Clear,220,2013-12-10 15:55:00
10:15 AM,-9.4,-16.6,71,29.94,10.0,SSW,5.8,-,N/A,,Clear,200,2013-12-10 16:15:00
10:35 AM,-9.4,-14.8,77,29.94,10.0,SSW,8.1,-,N/A,,Clear,210,2013-12-10 16:35:00
10:55 AM,-7.6,-13.0,77,29.95,10.0,SW,6.9,-,N/A,,Clear,220,2013-12-10 16:55:00
11:15 AM,-7.6,-13.0,77,29.95,10.0,SSW,8.1,-,N/A,,Clear,210,2013-12-10 17:15:00
11:35 AM,-5.8,-11.2,77,29.96,10.0,WSW,4.6,-,N/A,,Partly Cloudy,240,2013-12-10 17:35:00
11:55 AM,-4.0,-11.2,71,29.96,10.0,West,6.9,-,N/A,,Mostly Cloudy,270,2013-12-10 17:55:00
12:15 PM,-2.2,-11.2,66,29.97,10.0,WSW,4.6,-,N/A,,Overcast,240,2013-12-10 18:15:00
12:35 PM,-2.2,-11.2,66,29.97,10.0,West,6.9,-,N/A,,Scattered Clouds,280,2013-12-10 18:35:00
12:55 PM,-0.4,-9.4,66,29.98,10.0,NW,9.2,-,N/A,,Clear,320,2013-12-10 18:55:00
1:15 PM,-0.4,-9.4,66,29.99,10.0,NNW,8.1,-,N/A,,Clear,330,2013-12-10 19:15:00
1:35 PM,-0.4,-9.4,66,30.00,10.0,NNW,5.8,-,N/A,,Clear,330,2013-12-10 19:35:00
1:55 PM,-0.4,-9.4,66,30.00,8.0,NNW,6.9,-,N/A,,Scattered Clouds,330,2013-12-10 19:55:00
2:15 PM,-0.4,-9.4,66,30.01,9.0,North,9.2,-,N/A,,Partly Cloudy,350,2013-12-10 20:15:00
2:35 PM,-2.2,-9.4,71,30.02,10.0,North,10.4,-,N/A,,Clear,350,2013-12-10 20:35:00
2:55 PM,-2.2,-11.2,66,30.04,10.0,North,10.4,-,N/A,,Clear,350,2013-12-10 20:55:00
3:15 PM,-2.2,-11.2,66,30.05,10.0,NNW,9.2,-,N/A,,Clear,340,2013-12-10 21:15:00
3:35 PM,-2.2,-11.2,66,30.07,10.0,North,10.4,-,N/A,,Clear,350,2013-12-10 21:35:00
3:55 PM,-4.0,-11.2,71,30.07,10.0,North,15.0,-,N/A,,Clear,350,2013-12-10 21:55:00
4:15 PM,-4.0,-11.2,71,30.09,10.0,NNW,11.5,-,N/A,,Clear,340,2013-12-10 22:15:00
4:35 PM,-4.0,-11.2,71,30.11,10.0,NNW,9.2,-,N/A,,Clear,340,2013-12-10 22:35:00
4:55 PM,-5.8,-13.0,71,30.12,10.0,NW,10.4,-,N/A,,Clear,320,2013-12-10 22:55:00
5:15 PM,-4.0,-13.0,65,30.14,10.0,NW,8.1,-,N/A,,Clear,320,2013-12-10 23:15:00
5:35 PM,-5.8,-11.2,77,30.15,10.0,NW,8.1,-,N/A,,Clear,310,2013-12-10 23:35:00
5:55 PM,-4.0,-9999,N/A,30.17,10.0,WNW,6.9,-,N/A,,Clear,300,2013-12-10 23:55:00
6:15 PM,-4.0,-9999,N/A,30.18,10.0,WNW,9.2,-,N/A,,Clear,300,2013-12-11 00:15:00
6:35 PM,-4.0,-11.2,71,30.19,10.0,NW,10.4,-,N/A,,Clear,310,2013-12-11 00:35:00
6:55 PM,-4.0,-13.0,65,30.20,10.0,NW,9.2,-,N/A,,Clear,320,2013-12-11 00:55:00
7:15 PM,-5.8,-13.0,71,30.22,10.0,NW,9.2,-,N/A,,Partly Cloudy,310,2013-12-11 01:15:00
7:35 PM,-5.8,-13.0,71,30.23,10.0,NW,12.7,-,N/A,,Scattered Clouds,320,2013-12-11 01:35:00
7:55 PM,-4.0,-13.0,65,30.24,10.0,NW,13.8,18.4,N/A,,Mostly Cloudy,320,2013-12-11 01:55:00
8:15 PM,-4.0,-13.0,65,30.25,10.0,NW,10.4,-,N/A,,Mostly Cloudy,310,2013-12-11 02:15:00
8:35 PM,-5.8,-13.0,71,30.27,10.0,NW,10.4,-,N/A,,Clear,310,2013-12-11 02:35:00
8:55 PM,-7.6,-13.0,77,30.28,10.0,WNW,9.2,-,N/A,,Clear,300,2013-12-11 02:55:00
9:15 PM,-7.6,-13.0,77,30.28,10.0,WNW,8.1,-,N/A,,Clear,290,2013-12-11 03:15:00
9:35 PM,-9.4,-16.6,71,30.29,10.0,West,8.1,-,N/A,,Clear,280,2013-12-11 03:35:00
9:55 PM,-9.4,-14.8,77,30.30,10.0,WNW,8.1,-,N/A,,Clear,300,2013-12-11 03:55:00
10:15 PM,-9.4,-16.6,71,30.31,10.0,WNW,6.9,-,N/A,,Clear,300,2013-12-11 04:15:00
10:35 PM,-9.4,-16.6,71,30.32,10.0,WNW,5.8,-,N/A,,Clear,300,2013-12-11 04:35:00
10:55 PM,-13.0,-18.4,77,30.33,10.0,West,5.8,-,N/A,,Clear,280,2013-12-11 04:55:00
11:15 PM,-9.4,-16.6,71,30.34,10.0,NW,9.2,-,N/A,,Clear,310,2013-12-11 05:15:00
11:35 PM,-9.4,-16.6,71,30.34,10.0,WNW,11.5,-,N/A,,Clear,300,2013-12-11 05:35:00
11:55 PM,-9.4,-16.6,71,30.35,10.0,WNW,8.1,-,N/A,,Clear,290,2013-12-11 05:55:00